Terminal Aerodrome Forecast
Issued by NWS Tampa Bay Area, FL

Home | Current Version | Previous Version | Text Only | Print | Product List | Glossary On
Versions: 1 2 3 4 5 6 7 8 9 10 11 12 13 14 15 16 17 18 19 20 21 22 23 24
000
FTUS42 KTBW 291124
TAFTPA
TAF
KTPA 291124Z 2912/3012 VRB03KT P6SM FEW010 FEW070 SCT250
     FM291600 26007KT P6SM VCSH SCT040 BKN060
     FM300300 35004KT P6SM FEW250
     FM300600 VRB03KT P6SM FEW040 SCT100=

USA.gov is the U.S. government's official web portal to all federal, state and local government web resources and services.